Location: *
(40.7873°S, 98.7174°E)
Time: 10:35:46
(UTC+00:00)

Kosmos-1816 - Pass Details

Date: 24 June 2024
Orbit: 959 x 1007 km, 82.9° (Epoch: 23 July)

Event Time Altitude Azimuth Distance (km) Brightness Sun altitude
Rises 23:36:11 0° 32° (NNE) 3,712 9.9 -13.5°
Reaches altitude 10° 23:39:09 10° 45° (NE) 2,777 9.5 -13.0°
Maximum altitude 23:44:08 25° 96° (E) 1,940 8.4 -12.1°
Drops below altitude 10° 23:49:09 10° 147° (SSE) 2,814 8.6 -11.2°
Sets 23:52:10 0° 160° (SSE) 3,772 9.1 -10.7°
